Location: Nairn
(57.5833°N, 3.8667°W)
Time: 02:41:14
(UTC+00:00)

Transit 2A - Pass Details

Date: 30 November 2020
Orbit: 598 x 960 km, 66.7° (Epoch: 20 January)

Event Time Altitude Azimuth Distance (km) Brightness Sun altitude
Rises 21:44:48 0° 287° (WNW) 3,530 10.1 -46.2°
Reaches altitude 10° 21:47:41 10° 297° (WNW) 2,538 9.2 -46.5°
Enters shadow 21:48:12 12° 300° (WNW) 2,369 9.0 -46.6°
